Regional Weather Roundup
Issued by NWS

Home | Current Version | Previous Version | Text Only | Print | Product List | Glossary Off
Versions: 1 2 3 4 5 6 7 8 9 10 11 12 13 14 15 16 17 18 19 20 21 22 23 24 25 26 27 28 29 30 31 32 33 34 35 36 37 38 39 40 41 42 43 44 45 46 47 48 49 50

000
ASUS43 KFSD 011310
RWRSD

WEATHER ROUNDUP FOR SOUTH DAKOTA
NATIONAL WEATHER SERVICE SIOUX FALLS SD
800 AM CDT FRI AUG 01 2014

NOTE: "FAIR" INDICATES FEW OR NO CLOUDS BELOW 12,000 FEET WITH NO
SIGNIFICANT WEATHER AND/OR OBSTRUCTIONS TO VISIBILITY.


SDZ001>005-009-010-012>017-011400-
NORTHWEST AND NORTH CENTRAL SOUTH DAKOTA

CITY           SKY/WX    TMP DP  RH WIND       PRES   REMARKS
BUFFALO          N/A     60  50  69 NE5       30.02R
FAITH            N/A     65  55  70 SE9       30.06S
MOBRIDGE       MOSUNNY   64  59  83 SE6       30.05R
$$

SDZ012>016-024>037-041>051-057-063-072>074-011400-
SOUTHWEST AND SOUTH CENTRAL SOUTH DAKOTA

CITY           SKY/WX    TMP DP  RH WIND       PRES   REMARKS
RAPID CTY ARPT SUNNY     65  55  70 CALM      30.10S
PIERRE         SUNNY     65  61  87 SE5       30.06R
CUSTER         SUNNY     62  45  53 W7        30.27R
ELLSWORTH AFB  SUNNY     69  48  47 SW8       30.10R
PHILIP         SUNNY     59  51  75 E3        30.07R
PINE RIDGE     SUNNY     55  49  80 CALM      30.15R
WINNER         FAIR      65  61  87 S9        30.09S
$$

SDZ004>011-016>023-039-040-011400-
NORTHEAST SOUTH DAKOTA

CITY           SKY/WX    TMP DP  RH WIND       PRES   REMARKS
ABERDEEN       SUNNY     58  57  97 E5        30.08S
WATERTOWN      SUNNY     60  55  83 CALM      30.10S
SISSETON         N/A     65  62  90 N3        30.07R
$$

SDZ017-020-022-023-036>040-048>070-011400-
SOUTHEAST SOUTH DAKOTA

CITY           SKY/WX    TMP DP  RH WIND       PRES   REMARKS
SIOUX FALLS    MOSUNNY   61  58  90 CALM      30.11R
HURON          SUNNY     60  57  89 SE5       30.08R
CHAMBERLAIN    MOSUNNY   62  59  91 CALM      30.09R
MITCHELL       SUNNY     61  60  97 SE5       30.10R
YANKTON        PTSUNNY   57  57 100 CALM      30.11S VSB<1/4
$$

ABBREVIATIONS USED IN REMARKS
   TC - TEMPERATURE IN CELSIUS
  WCI - WIND CHILL INDEX
   HX - HEAT INDEX
  VSB - VISIBILITY



USA.gov is the U.S. government's official web portal to all federal, state and local government web resources and services.